Year,Month,Day,Hour,Minute,Value (Times are PST for windgust in km/hr)
2013,04,13,00,00,17.70
2013,04,13,00,01,11.30
2013,04,13,00,02,11.30
2013,04,13,00,03,24.20
2013,04,13,00,04,24.20
2013,04,13,00,05,9.60
2013,04,13,00,06,4.80
2013,04,13,00,07,6.40
2013,04,13,00,08,9.60
2013,04,13,00,09,8.10
2013,04,13,00,10,8.10
2013,04,13,00,11,8.10
2013,04,13,00,12,11.30
2013,04,13,00,18,8.10
2013,04,13,00,19,11.30
2013,04,13,00,20,16.10
2013,04,13,00,21,9.60
2013,04,13,00,22,11.30
2013,04,13,00,23,11.30
2013,04,13,00,24,9.60
2013,04,13,00,25,17.70
2013,04,13,00,26,17.70
2013,04,13,00,27,14.50
2013,04,13,00,28,12.90
2013,04,13,00,29,14.50
2013,04,13,00,30,8.10
2013,04,13,00,31,14.50
2013,04,13,00,32,12.90
2013,04,13,00,33,12.90
2013,04,13,00,34,12.90
2013,04,13,00,35,11.30
2013,04,13,00,36,9.60
2013,04,13,00,37,14.50
2013,04,13,00,38,11.30
2013,04,13,00,39,11.30
2013,04,13,00,40,24.20
2013,04,13,00,41,14.50
2013,04,13,00,42,8.10
2013,04,13,00,43,12.90
2013,04,13,00,44,4.80
2013,04,13,00,45,9.60
2013,04,13,00,46,22.50
2013,04,13,00,47,20.90
2013,04,13,00,48,17.70
2013,04,13,00,49,20.90
2013,04,13,00,50,9.60
2013,04,13,00,51,11.30
2013,04,13,00,52,24.20
2013,04,13,00,53,29.00
2013,04,13,00,54,20.90
2013,04,13,00,55,11.30
2013,04,13,00,56,12.90
2013,04,13,00,57,17.70
2013,04,13,00,58,16.10
2013,04,13,00,59,12.90
2013,04,13,01,00,16.10
2013,04,13,01,01,22.50
2013,04,13,01,02,19.30
2013,04,13,01,03,14.50
2013,04,13,01,04,17.70
2013,04,13,01,05,14.50
2013,04,13,01,06,14.50
2013,04,13,01,07,17.70
2013,04,13,01,08,16.10
2013,04,13,01,09,16.10
2013,04,13,01,10,16.10
2013,04,13,01,11,17.70
2013,04,13,01,12,16.10
2013,04,13,01,13,32.20
2013,04,13,01,14,16.10
2013,04,13,01,15,14.50
2013,04,13,01,16,16.10
2013,04,13,01,17,14.50
2013,04,13,01,18,14.50
2013,04,13,01,19,19.30
2013,04,13,01,20,22.50
2013,04,13,01,21,17.70
2013,04,13,01,22,12.90
2013,04,13,01,23,16.10
2013,04,13,01,24,12.90
2013,04,13,01,25,17.70
2013,04,13,01,26,12.90
2013,04,13,01,27,16.10
2013,04,13,01,28,24.20
2013,04,13,01,29,17.70
2013,04,13,01,30,17.70
2013,04,13,01,31,11.30
2013,04,13,01,32,16.10
2013,04,13,01,33,16.10
2013,04,13,01,34,22.50
2013,04,13,01,35,19.30
2013,04,13,01,36,17.70
2013,04,13,01,37,14.50
2013,04,13,01,38,14.50
2013,04,13,01,39,8.10
2013,04,13,01,40,12.90
2013,04,13,01,41,14.50
2013,04,13,01,42,14.50
2013,04,13,01,43,14.50
2013,04,13,01,44,14.50
2013,04,13,01,45,14.50
2013,04,13,01,46,9.60
2013,04,13,01,47,6.40
2013,04,13,01,48,11.30
2013,04,13,01,49,4.80
2013,04,13,01,50,9.60
2013,04,13,01,51,12.90
2013,04,13,01,52,14.50
2013,04,13,01,53,11.30
2013,04,13,01,54,4.80
2013,04,13,01,55,1.60
2013,04,13,01,56,3.20
2013,04,13,01,57,3.20
2013,04,13,01,58,4.80
2013,04,13,01,59,6.40
2013,04,13,02,00,9.60
2013,04,13,02,01,6.40
2013,04,13,02,02,8.10
2013,04,13,02,03,12.90
2013,04,13,02,04,12.90
2013,04,13,02,05,19.30
2013,04,13,02,06,12.90
2013,04,13,02,07,6.40
2013,04,13,02,08,4.80
2013,04,13,02,09,6.40
2013,04,13,02,10,17.70
2013,04,13,02,11,9.60
2013,04,13,02,12,8.10
2013,04,13,02,13,8.10
2013,04,13,02,14,9.60
2013,04,13,02,15,14.50
2013,04,13,02,16,11.30
2013,04,13,02,17,4.80
2013,04,13,02,18,3.20
2013,04,13,02,20,3.20
2013,04,13,02,24,4.80
2013,04,13,02,25,4.80
2013,04,13,02,26,8.10
2013,04,13,02,27,9.60
2013,04,13,02,28,16.10
2013,04,13,02,29,16.10
2013,04,13,02,30,9.60
2013,04,13,02,31,8.10
2013,04,13,02,32,9.60
2013,04,13,02,33,11.30
2013,04,13,02,34,9.60
2013,04,13,02,35,11.30
2013,04,13,02,36,11.30
2013,04,13,02,37,9.60
2013,04,13,02,38,6.40
2013,04,13,02,39,3.20
2013,04,13,02,40,9.60
2013,04,13,02,41,9.60
2013,04,13,02,42,8.10
2013,04,13,02,43,8.10
2013,04,13,02,44,4.80
2013,04,13,02,45,3.20
2013,04,13,02,46,3.20
2013,04,13,02,47,1.60
2013,04,13,02,52,3.20
2013,04,13,02,53,4.80
2013,04,13,02,54,1.60
2013,04,13,02,58,1.60
2013,04,13,02,59,1.60
2013,04,13,03,00,3.20
2013,04,13,03,01,6.40
2013,04,13,03,02,3.20
2013,04,13,03,03,3.20
2013,04,13,03,04,11.30
2013,04,13,03,05,4.80
2013,04,13,03,06,11.30
2013,04,13,03,07,11.30
2013,04,13,03,08,25.70
2013,04,13,03,09,22.50
2013,04,13,03,10,11.30
2013,04,13,03,11,11.30
2013,04,13,03,12,14.50
2013,04,13,03,13,16.10
2013,04,13,03,14,11.30
2013,04,13,03,15,8.10
2013,04,13,03,16,17.70
2013,04,13,03,17,11.30
2013,04,13,03,18,14.50
2013,04,13,03,19,14.50
2013,04,13,03,20,14.50
2013,04,13,03,21,20.90
2013,04,13,03,22,16.10
2013,04,13,03,23,20.90
2013,04,13,03,24,11.30
2013,04,13,03,25,12.90
2013,04,13,03,26,14.50
2013,04,13,03,27,9.60
2013,04,13,03,28,17.70
2013,04,13,03,29,17.70
2013,04,13,03,30,9.60
2013,04,13,03,31,9.60
2013,04,13,03,32,6.40
2013,04,13,03,33,19.30
2013,04,13,03,34,19.30
2013,04,13,03,35,22.50
2013,04,13,03,36,22.50
2013,04,13,03,37,12.90
2013,04,13,03,38,16.10
2013,04,13,03,39,16.10
2013,04,13,03,40,12.90
2013,04,13,03,41,17.70
2013,04,13,03,42,14.50
2013,04,13,03,43,11.30
2013,04,13,03,44,9.60
2013,04,13,03,45,6.40
2013,04,13,03,46,6.40
2013,04,13,03,47,8.10
2013,04,13,03,48,12.90
2013,04,13,03,49,6.40
2013,04,13,03,50,16.10
2013,04,13,03,51,17.70
2013,04,13,03,52,9.60
2013,04,13,03,53,9.60
2013,04,13,03,54,9.60
2013,04,13,03,55,11.30
2013,04,13,03,56,12.90
2013,04,13,03,57,9.60
2013,04,13,03,58,22.50
2013,04,13,03,59,16.10
2013,04,13,04,00,12.90
2013,04,13,04,01,11.30
2013,04,13,04,02,17.70
2013,04,13,04,03,17.70
2013,04,13,04,04,9.60
2013,04,13,04,05,4.80
2013,04,13,04,06,6.40
2013,04,13,04,07,4.80
2013,04,13,04,08,6.40
2013,04,13,04,09,11.30
2013,04,13,04,10,9.60
2013,04,13,04,11,6.40
2013,04,13,04,12,14.50
2013,04,13,04,13,11.30
2013,04,13,04,14,11.30
2013,04,13,04,15,14.50
2013,04,13,04,16,17.70
2013,04,13,04,17,16.10
2013,04,13,04,18,17.70
2013,04,13,04,19,19.30
2013,04,13,04,20,22.50
2013,04,13,04,21,17.70
2013,04,13,04,22,20.90
2013,04,13,04,23,16.10
2013,04,13,04,24,12.90
2013,04,13,04,25,9.60
2013,04,13,04,26,11.30
2013,04,13,04,27,11.30
2013,04,13,04,28,14.50
2013,04,13,04,29,11.30
2013,04,13,04,30,6.40
2013,04,13,04,31,8.10
2013,04,13,04,32,11.30
2013,04,13,04,33,11.30
2013,04,13,04,34,11.30
2013,04,13,04,35,9.60
2013,04,13,04,36,17.70
2013,04,13,04,37,16.10
2013,04,13,04,38,9.60
2013,04,13,04,39,12.90
2013,04,13,04,40,16.10
2013,04,13,04,41,11.30
2013,04,13,04,42,22.50
2013,04,13,04,43,22.50
2013,04,13,04,44,14.50
2013,04,13,04,45,19.30
2013,04,13,04,46,11.30
2013,04,13,04,47,25.70
2013,04,13,04,48,22.50
2013,04,13,04,49,16.10
2013,04,13,04,50,9.60
2013,04,13,04,51,6.40
2013,04,13,04,52,8.10
2013,04,13,04,53,14.50
2013,04,13,04,54,16.10
2013,04,13,04,55,11.30
2013,04,13,04,56,11.30
2013,04,13,04,57,17.70
2013,04,13,04,58,16.10
2013,04,13,04,59,9.60
2013,04,13,05,00,6.40
2013,04,13,05,01,9.60
2013,04,13,05,02,9.60
2013,04,13,05,03,9.60
2013,04,13,05,04,16.10
2013,04,13,05,05,16.10
2013,04,13,05,06,12.90
2013,04,13,05,07,8.10
2013,04,13,05,08,8.10
2013,04,13,05,09,8.10
2013,04,13,05,10,6.40
2013,04,13,05,11,4.80
2013,04,13,05,12,11.30
2013,04,13,05,13,12.90
2013,04,13,05,14,14.50
2013,04,13,05,15,11.30
2013,04,13,05,16,8.10
2013,04,13,05,17,6.40
2013,04,13,05,18,9.60
2013,04,13,05,19,9.60
2013,04,13,05,20,6.40
2013,04,13,05,21,9.60
2013,04,13,05,22,11.30
2013,04,13,05,23,9.60
2013,04,13,05,24,20.90
2013,04,13,05,25,9.60
2013,04,13,05,26,8.10
2013,04,13,05,27,4.80
2013,04,13,05,28,6.40
2013,04,13,05,29,11.30
2013,04,13,05,30,12.90
2013,04,13,05,31,8.10
2013,04,13,05,32,11.30
2013,04,13,05,33,11.30
2013,04,13,05,34,6.40
2013,04,13,05,35,11.30
2013,04,13,05,36,12.90
2013,04,13,05,37,6.40
2013,04,13,05,38,6.40
2013,04,13,05,39,6.40
2013,04,13,05,40,12.90
2013,04,13,05,41,11.30
2013,04,13,05,42,9.60
2013,04,13,05,43,8.10
2013,04,13,05,44,14.50
2013,04,13,05,45,24.20
2013,04,13,05,46,14.50
2013,04,13,05,47,16.10
2013,04,13,05,48,22.50
2013,04,13,05,49,12.90
2013,04,13,05,50,8.10
2013,04,13,05,51,17.70
2013,04,13,05,52,4.80
2013,04,13,05,53,8.10
2013,04,13,05,54,14.50
2013,04,13,05,55,12.90
2013,04,13,05,56,16.10
2013,04,13,05,57,14.50
2013,04,13,05,58,8.10
2013,04,13,05,59,12.90
2013,04,13,06,00,6.40
2013,04,13,06,01,6.40
2013,04,13,06,02,8.10
2013,04,13,06,03,12.90
2013,04,13,06,04,11.30
2013,04,13,06,05,6.40
2013,04,13,06,06,8.10
2013,04,13,06,07,9.60
2013,04,13,06,08,9.60
2013,04,13,06,10,6.40
2013,04,13,06,11,8.10
2013,04,13,06,12,9.60
2013,04,13,06,13,8.10
2013,04,13,06,14,4.80
2013,04,13,06,15,9.60
2013,04,13,06,16,6.40
2013,04,13,06,17,9.60
2013,04,13,06,18,6.40
2013,04,13,06,19,3.20
2013,04,13,06,20,8.10
2013,04,13,06,21,9.60
2013,04,13,06,22,4.80
2013,04,13,06,23,4.80
2013,04,13,06,24,4.80
2013,04,13,06,25,3.20
2013,04,13,06,26,8.10
2013,04,13,06,27,11.30
2013,04,13,06,28,12.90
2013,04,13,06,29,4.80
2013,04,13,06,30,6.40
2013,04,13,06,31,3.20
2013,04,13,06,32,3.20
2013,04,13,06,33,9.60
2013,04,13,06,34,6.40
2013,04,13,06,35,4.80
2013,04,13,06,36,3.20
2013,04,13,06,37,4.80
2013,04,13,06,38,6.40
2013,04,13,06,39,4.80
2013,04,13,06,40,1.60
2013,04,13,06,41,3.20
2013,04,13,06,42,1.60
2013,04,13,06,43,3.20
2013,04,13,06,44,3.20
2013,04,13,06,45,4.80
2013,04,13,06,46,3.20
2013,04,13,06,47,9.60
2013,04,13,06,48,8.10
2013,04,13,06,49,9.60
2013,04,13,06,50,9.60
2013,04,13,06,51,12.90
2013,04,13,06,52,8.10
2013,04,13,06,53,6.40
2013,04,13,06,54,1.60
2013,04,13,06,57,4.80
2013,04,13,06,58,8.10
2013,04,13,06,59,9.60
2013,04,13,07,00,8.10
2013,04,13,07,01,6.40
2013,04,13,07,02,3.20
2013,04,13,07,03,1.60
2013,04,13,07,05,3.20
2013,04,13,07,06,11.30
2013,04,13,07,07,6.40
2013,04,13,07,08,6.40
2013,04,13,07,09,9.60
2013,04,13,07,10,8.10
2013,04,13,07,11,6.40
2013,04,13,07,12,12.90
2013,04,13,07,13,11.30
2013,04,13,07,14,12.90
2013,04,13,07,15,9.60
2013,04,13,07,16,8.10
2013,04,13,07,17,8.10
2013,04,13,07,18,17.70
2013,04,13,07,19,8.10
2013,04,13,07,20,9.60
2013,04,13,07,21,6.40
2013,04,13,07,22,9.60
2013,04,13,07,23,9.60
2013,04,13,07,24,6.40
2013,04,13,07,25,9.60
2013,04,13,07,26,12.90
2013,04,13,07,27,12.90
2013,04,13,07,28,8.10
2013,04,13,07,29,14.50
2013,04,13,07,30,9.60
2013,04,13,07,31,9.60
2013,04,13,07,32,9.60
2013,04,13,07,33,8.10
2013,04,13,07,34,12.90
2013,04,13,07,35,6.40
2013,04,13,07,36,4.80
2013,04,13,07,37,8.10
2013,04,13,07,38,6.40
2013,04,13,07,39,4.80
2013,04,13,07,40,1.60
2013,04,13,07,42,1.60
2013,04,13,07,43,3.20
2013,04,13,07,44,6.40
2013,04,13,07,45,6.40
2013,04,13,07,46,6.40
2013,04,13,07,47,8.10
2013,04,13,07,48,9.60
2013,04,13,07,49,14.50
2013,04,13,07,50,9.60
2013,04,13,07,51,8.10
2013,04,13,07,52,6.40
2013,04,13,07,53,8.10
2013,04,13,07,54,6.40
2013,04,13,07,55,12.90
2013,04,13,07,56,8.10
2013,04,13,07,57,8.10
2013,04,13,07,58,12.90
2013,04,13,07,59,11.30
2013,04,13,08,00,8.10
2013,04,13,08,01,1.60
2013,04,13,08,02,6.40
2013,04,13,08,03,11.30
2013,04,13,08,04,3.20
2013,04,13,08,05,3.20
2013,04,13,08,06,6.40
2013,04,13,08,07,6.40
2013,04,13,08,08,4.80
2013,04,13,08,09,8.10
2013,04,13,08,10,6.40
2013,04,13,08,11,8.10
2013,04,13,08,12,8.10
2013,04,13,08,13,6.40
2013,04,13,08,14,14.50
2013,04,13,08,15,9.60
2013,04,13,08,16,9.60
2013,04,13,08,17,12.90
2013,04,13,08,18,9.60
2013,04,13,08,19,9.60
2013,04,13,08,20,11.30
2013,04,13,08,21,6.40
2013,04,13,08,22,4.80
2013,04,13,08,23,3.20
2013,04,13,08,24,4.80
2013,04,13,08,25,8.10
2013,04,13,08,26,4.80
2013,04,13,08,27,9.60
2013,04,13,08,28,9.60
2013,04,13,08,29,9.60
2013,04,13,08,30,12.90
2013,04,13,08,31,8.10
2013,04,13,08,32,6.40
2013,04,13,08,33,4.80
2013,04,13,08,34,11.30
2013,04,13,08,35,8.10
2013,04,13,08,36,9.60
2013,04,13,08,37,6.40
2013,04,13,08,38,6.40
2013,04,13,08,39,6.40
2013,04,13,08,40,4.80
2013,04,13,08,41,3.20
2013,04,13,08,42,6.40
2013,04,13,08,43,3.20
2013,04,13,08,44,4.80
2013,04,13,08,45,3.20
2013,04,13,08,46,1.60
2013,04,13,08,47,1.60
2013,04,13,08,48,4.80
2013,04,13,08,49,4.80
2013,04,13,08,50,4.80
2013,04,13,08,51,6.40
2013,04,13,08,52,4.80
2013,04,13,08,53,3.20
2013,04,13,08,54,3.20
2013,04,13,08,55,3.20
2013,04,13,08,56,4.80
2013,04,13,08,57,6.40
2013,04,13,08,58,6.40
2013,04,13,08,59,4.80
2013,04,13,09,00,6.40
2013,04,13,09,01,9.60
2013,04,13,09,02,8.10
2013,04,13,09,03,9.60
2013,04,13,09,04,11.30
2013,04,13,09,05,11.30
2013,04,13,09,06,8.10
2013,04,13,09,07,6.40
2013,04,13,09,08,8.10
2013,04,13,09,09,12.90
2013,04,13,09,10,9.60
2013,04,13,09,11,6.40
2013,04,13,09,12,12.90
2013,04,13,09,13,11.30
2013,04,13,09,14,16.10
2013,04,13,09,15,14.50
2013,04,13,09,16,9.60
2013,04,13,09,17,6.40
2013,04,13,09,18,11.30
2013,04,13,09,19,9.60
2013,04,13,09,20,12.90
2013,04,13,09,21,9.60
2013,04,13,09,22,11.30
2013,04,13,09,23,17.70
2013,04,13,09,24,14.50
2013,04,13,09,25,11.30
2013,04,13,09,26,6.40
2013,04,13,09,27,6.40
2013,04,13,09,28,24.20
2013,04,13,09,29,17.70
2013,04,13,09,30,17.70
2013,04,13,09,31,14.50
2013,04,13,09,32,24.20
2013,04,13,09,33,11.30
2013,04,13,09,34,11.30
2013,04,13,09,35,9.60
2013,04,13,09,36,8.10
2013,04,13,09,37,9.60
2013,04,13,09,38,6.40
2013,04,13,09,39,4.80
2013,04,13,09,40,9.60
2013,04,13,09,41,11.30
2013,04,13,09,42,9.60
2013,04,13,09,43,11.30
2013,04,13,09,44,9.60
2013,04,13,09,45,11.30
2013,04,13,09,46,14.50
2013,04,13,09,47,11.30
2013,04,13,09,48,11.30
2013,04,13,09,49,17.70
2013,04,13,09,50,17.70
2013,04,13,09,51,16.10
2013,04,13,09,52,9.60
2013,04,13,09,53,11.30
2013,04,13,09,54,16.10
2013,04,13,09,55,19.30
2013,04,13,09,56,16.10
2013,04,13,09,57,12.90
2013,04,13,09,58,14.50
2013,04,13,09,59,12.90
2013,04,13,10,00,14.50
2013,04,13,10,01,17.70
2013,04,13,10,02,17.70
2013,04,13,10,03,19.30
2013,04,13,10,04,9.60
2013,04,13,10,05,12.90
2013,04,13,10,06,11.30
2013,04,13,10,07,6.40
2013,04,13,10,08,9.60
2013,04,13,10,09,11.30
2013,04,13,10,10,9.60
2013,04,13,10,11,8.10
2013,04,13,10,12,12.90
2013,04,13,10,13,17.70
2013,04,13,10,14,14.50
2013,04,13,10,15,16.10
2013,04,13,10,16,17.70
2013,04,13,10,17,17.70
2013,04,13,10,18,14.50
2013,04,13,10,19,8.10
2013,04,13,10,20,8.10
2013,04,13,10,21,11.30
2013,04,13,10,22,11.30
2013,04,13,10,23,6.40
2013,04,13,10,24,17.70
2013,04,13,10,25,14.50
2013,04,13,10,26,11.30
2013,04,13,10,27,12.90
2013,04,13,10,28,12.90
2013,04,13,10,29,12.90
2013,04,13,10,30,12.90
2013,04,13,10,31,12.90
2013,04,13,10,32,14.50
2013,04,13,10,33,16.10
2013,04,13,10,34,14.50
2013,04,13,10,35,12.90
2013,04,13,10,36,9.60
2013,04,13,10,37,14.50
2013,04,13,10,38,11.30
2013,04,13,10,39,19.30
2013,04,13,10,40,14.50
2013,04,13,10,41,16.10
2013,04,13,10,42,14.50
2013,04,13,10,43,11.30
2013,04,13,10,44,11.30
2013,04,13,10,45,11.30
2013,04,13,10,46,16.10
2013,04,13,10,47,17.70
2013,04,13,10,48,14.50
2013,04,13,10,49,12.90
2013,04,13,10,50,12.90
2013,04,13,10,51,8.10
2013,04,13,10,52,14.50
2013,04,13,10,53,20.90
2013,04,13,10,54,19.30
2013,04,13,10,55,14.50
2013,04,13,10,56,11.30
2013,04,13,10,57,8.10
2013,04,13,10,58,8.10
2013,04,13,10,59,9.60
2013,04,13,11,00,11.30
2013,04,13,11,01,11.30
2013,04,13,11,02,14.50
2013,04,13,11,03,11.30
2013,04,13,11,04,12.90
2013,04,13,11,05,9.60
2013,04,13,11,06,9.60
2013,04,13,11,07,14.50
2013,04,13,11,08,9.60
2013,04,13,11,09,14.50
2013,04,13,11,10,9.60
2013,04,13,11,11,8.10
2013,04,13,11,12,4.80
2013,04,13,11,13,6.40
2013,04,13,11,14,8.10
2013,04,13,11,15,12.90
2013,04,13,11,16,12.90
2013,04,13,11,17,12.90
2013,04,13,11,18,16.10
2013,04,13,11,19,16.10
2013,04,13,11,20,4.80
2013,04,13,11,21,11.30
2013,04,13,11,22,16.10
2013,04,13,11,23,12.90
2013,04,13,11,24,6.40
2013,04,13,11,25,8.10
2013,04,13,11,26,20.90
2013,04,13,11,27,14.50
2013,04,13,11,28,14.50
2013,04,13,11,29,9.60
2013,04,13,11,30,19.30
2013,04,13,11,31,16.10
2013,04,13,11,32,14.50
2013,04,13,11,33,16.10
2013,04,13,11,34,24.20
2013,04,13,11,35,20.90
2013,04,13,11,36,17.70
2013,04,13,11,37,16.10
2013,04,13,11,38,19.30
2013,04,13,11,39,14.50
2013,04,13,11,40,16.10
2013,04,13,11,41,17.70
2013,04,13,11,42,14.50
2013,04,13,11,43,12.90
2013,04,13,11,44,16.10
2013,04,13,11,45,14.50
2013,04,13,11,46,25.70
2013,04,13,11,47,24.20
2013,04,13,11,48,12.90
2013,04,13,11,49,11.30
2013,04,13,11,50,9.60
2013,04,13,11,51,17.70
2013,04,13,11,52,11.30
2013,04,13,11,53,27.40
2013,04,13,11,54,12.90
2013,04,13,11,55,9.60
2013,04,13,11,56,17.70
2013,04,13,11,57,14.50
2013,04,13,11,58,9.60
2013,04,13,11,59,16.10
2013,04,13,12,00,17.70
2013,04,13,12,01,27.40
2013,04,13,12,02,14.50
2013,04,13,12,03,14.50
2013,04,13,12,04,11.30
2013,04,13,12,05,6.40
2013,04,13,12,06,6.40
2013,04,13,12,07,4.80
2013,04,13,12,08,17.70
2013,04,13,12,09,9.60
2013,04,13,12,10,9.60
2013,04,13,12,11,11.30
2013,04,13,12,12,6.40
2013,04,13,12,13,6.40
2013,04,13,12,14,6.40
2013,04,13,12,15,9.60
2013,04,13,12,16,9.60
2013,04,13,12,17,11.30
2013,04,13,12,18,19.30
2013,04,13,12,19,4.80
2013,04,13,12,20,9.60
2013,04,13,12,21,8.10
2013,04,13,12,22,6.40
2013,04,13,12,23,4.80
2013,04,13,12,24,3.20
2013,04,13,12,26,3.20
2013,04,13,12,27,1.60
2013,04,13,12,28,1.60
2013,04,13,12,29,4.80
2013,04,13,12,30,6.40
2013,04,13,12,31,3.20
2013,04,13,12,32,3.20
2013,04,13,12,33,3.20
2013,04,13,12,34,3.20
2013,04,13,12,35,3.20
2013,04,13,12,36,1.60
2013,04,13,12,37,1.60
2013,04,13,12,38,11.30
2013,04,13,12,39,4.80
2013,04,13,12,40,4.80
2013,04,13,12,41,4.80
2013,04,13,12,42,4.80
2013,04,13,12,43,1.60
2013,04,13,12,44,6.40
2013,04,13,12,45,12.90
2013,04,13,12,46,9.60
2013,04,13,12,47,11.30
2013,04,13,12,48,12.90
2013,04,13,12,49,8.10
2013,04,13,12,50,11.30
2013,04,13,12,51,14.50
2013,04,13,12,52,20.90
2013,04,13,12,53,22.50
2013,04,13,12,54,11.30
2013,04,13,12,55,17.70
2013,04,13,12,56,20.90
2013,04,13,12,57,25.70
2013,04,13,12,58,22.50
2013,04,13,12,59,17.70
2013,04,13,13,00,14.50
2013,04,13,13,01,19.30
2013,04,13,13,02,22.50
2013,04,13,13,03,20.90
2013,04,13,13,04,20.90
2013,04,13,13,05,17.70
2013,04,13,13,06,11.30
2013,04,13,13,07,8.10
2013,04,13,13,08,14.50
2013,04,13,13,09,22.50
2013,04,13,13,10,24.20
2013,04,13,13,11,22.50
2013,04,13,13,12,19.30
2013,04,13,13,13,12.90
2013,04,13,13,14,16.10
2013,04,13,13,15,17.70
2013,04,13,13,16,17.70
2013,04,13,13,17,11.30
2013,04,13,13,18,9.60
2013,04,13,13,19,11.30
2013,04,13,13,20,14.50
2013,04,13,13,21,14.50
2013,04,13,13,22,11.30
2013,04,13,13,23,8.10
2013,04,13,13,24,4.80
2013,04,13,13,25,6.40
2013,04,13,13,26,9.60
2013,04,13,13,27,6.40
2013,04,13,13,28,8.10
2013,04,13,13,29,19.30
2013,04,13,13,30,11.30
2013,04,13,13,31,11.30
2013,04,13,13,32,20.90
2013,04,13,13,33,19.30
2013,04,13,13,34,14.50
2013,04,13,13,35,12.90
2013,04,13,13,36,11.30
2013,04,13,13,37,9.60
2013,04,13,13,38,11.30
2013,04,13,13,39,16.10
2013,04,13,13,40,11.30
2013,04,13,13,41,6.40
2013,04,13,13,42,8.10
2013,04,13,13,43,9.60
2013,04,13,13,44,12.90
2013,04,13,13,45,14.50
2013,04,13,13,46,14.50
2013,04,13,13,47,8.10
2013,04,13,13,48,9.60
2013,04,13,13,49,11.30
2013,04,13,13,50,11.30
2013,04,13,13,51,8.10
2013,04,13,13,52,6.40
2013,04,13,13,53,8.10
2013,04,13,13,54,9.60
2013,04,13,13,55,4.80
2013,04,13,13,56,9.60
2013,04,13,13,57,11.30
2013,04,13,13,58,6.40
2013,04,13,13,59,6.40
2013,04,13,14,00,6.40
2013,04,13,14,01,8.10
2013,04,13,14,02,8.10
2013,04,13,14,03,6.40
2013,04,13,14,04,12.90
2013,04,13,14,05,8.10
2013,04,13,14,06,4.80
2013,04,13,14,07,3.20
2013,04,13,14,08,4.80
2013,04,13,14,09,6.40
2013,04,13,14,10,11.30
2013,04,13,14,11,8.10
2013,04,13,14,12,4.80
2013,04,13,14,13,4.80
2013,04,13,14,14,6.40
2013,04,13,14,15,6.40
2013,04,13,14,16,11.30
2013,04,13,14,17,12.90
2013,04,13,14,18,4.80
2013,04,13,14,19,9.60
2013,04,13,14,20,8.10
2013,04,13,14,21,8.10
2013,04,13,14,22,9.60
2013,04,13,14,23,8.10
2013,04,13,14,24,4.80
2013,04,13,14,25,4.80
2013,04,13,14,26,6.40
2013,04,13,14,27,8.10
2013,04,13,14,28,6.40
2013,04,13,14,29,11.30
2013,04,13,14,30,12.90
2013,04,13,14,31,8.10
2013,04,13,14,32,12.90
2013,04,13,14,33,4.80
2013,04,13,14,34,3.20
2013,04,13,14,35,3.20
2013,04,13,14,36,1.60
2013,04,13,14,37,3.20
2013,04,13,14,38,4.80
2013,04,13,14,39,11.30
2013,04,13,14,40,4.80
2013,04,13,14,41,3.20
2013,04,13,14,42,6.40
2013,04,13,14,43,6.40
2013,04,13,14,44,4.80
2013,04,13,14,45,3.20
2013,04,13,14,46,1.60
2013,04,13,14,47,3.20
2013,04,13,14,48,4.80
2013,04,13,14,49,8.10
2013,04,13,14,50,8.10
2013,04,13,14,51,4.80
2013,04,13,14,52,3.20
2013,04,13,14,53,1.60
2013,04,13,14,54,1.60
2013,04,13,14,55,1.60
2013,04,13,14,56,4.80
2013,04,13,14,57,8.10
2013,04,13,14,58,6.40
2013,04,13,14,59,3.20
2013,04,13,15,00,3.20
2013,04,13,15,01,3.20
2013,04,13,15,02,4.80
2013,04,13,15,03,3.20
2013,04,13,15,04,4.80
2013,04,13,15,05,1.60
2013,04,13,15,06,4.80
2013,04,13,15,07,4.80
2013,04,13,15,08,6.40
2013,04,13,15,09,3.20
2013,04,13,15,10,3.20
2013,04,13,15,11,3.20
2013,04,13,15,12,3.20
2013,04,13,15,13,3.20
2013,04,13,15,14,3.20
2013,04,13,15,15,1.60
2013,04,13,15,16,4.80
2013,04,13,15,17,8.10
2013,04,13,15,18,8.10
2013,04,13,15,19,8.10
2013,04,13,15,20,4.80
2013,04,13,15,22,1.60
2013,04,13,15,23,3.20
2013,04,13,15,24,4.80
2013,04,13,15,25,3.20
2013,04,13,15,26,3.20
2013,04,13,15,27,4.80
2013,04,13,15,28,6.40
2013,04,13,15,29,4.80
2013,04,13,15,30,3.20
2013,04,13,15,31,4.80
2013,04,13,15,32,1.60
2013,04,13,15,33,1.60
2013,04,13,15,34,3.20
2013,04,13,15,35,1.60
2013,04,13,15,37,1.60
2013,04,13,15,38,3.20
2013,04,13,15,39,3.20
2013,04,13,15,41,3.20
2013,04,13,15,42,1.60
2013,04,13,15,43,1.60
2013,04,13,15,44,3.20
2013,04,13,15,45,1.60
2013,04,13,15,48,3.20
2013,04,13,15,53,1.60
2013,04,13,15,54,1.60
2013,04,13,15,57,1.60
2013,04,13,15,58,1.60
2013,04,13,16,02,1.60
2013,04,13,16,03,4.80
2013,04,13,16,04,3.20
2013,04,13,16,05,1.60
2013,04,13,16,06,4.80
2013,04,13,16,07,1.60
2013,04,13,16,08,3.20
2013,04,13,16,09,3.20
2013,04,13,16,11,3.20
2013,04,13,16,12,1.60
2013,04,13,16,13,1.60
2013,04,13,16,14,1.60
2013,04,13,16,15,3.20
2013,04,13,16,16,3.20
2013,04,13,16,17,1.60
2013,04,13,16,19,1.60
2013,04,13,16,20,1.60
2013,04,13,16,21,1.60
2013,04,13,16,22,3.20
2013,04,13,16,23,3.20
2013,04,13,16,24,3.20
2013,04,13,16,25,1.60
2013,04,13,16,26,1.60
2013,04,13,16,28,1.60
2013,04,13,16,29,1.60
2013,04,13,16,30,1.60
2013,04,13,16,31,4.80
2013,04,13,16,32,3.20
2013,04,13,16,33,4.80
2013,04,13,16,34,6.40
2013,04,13,16,35,3.20
2013,04,13,16,36,3.20
2013,04,13,16,37,1.60
2013,04,13,16,38,3.20
2013,04,13,16,39,1.60
2013,04,13,16,42,1.60
2013,04,13,16,50,1.60
2013,04,13,16,57,1.60
2013,04,13,17,01,1.60
2013,04,13,17,11,1.60
2013,04,13,17,12,1.60
2013,04,13,17,14,1.60
2013,04,13,17,16,1.60
2013,04,13,17,17,1.60
2013,04,13,17,22,1.60
2013,04,13,17,27,1.60
2013,04,13,17,28,1.60
2013,04,13,17,31,1.60
2013,04,13,17,35,1.60
2013,04,13,17,36,3.20
2013,04,13,17,37,1.60
2013,04,13,17,38,3.20
2013,04,13,17,44,1.60
2013,04,13,17,45,3.20
2013,04,13,17,46,4.80
2013,04,13,17,47,6.40
2013,04,13,17,48,6.40
2013,04,13,17,49,4.80
2013,04,13,17,50,4.80
2013,04,13,17,51,4.80
2013,04,13,17,52,4.80
2013,04,13,17,53,4.80
2013,04,13,17,54,3.20
2013,04,13,17,55,3.20
2013,04,13,17,56,3.20
2013,04,13,17,57,3.20
2013,04,13,17,58,3.20
2013,04,13,17,59,6.40
2013,04,13,18,00,3.20
2013,04,13,18,01,4.80
2013,04,13,18,02,4.80
2013,04,13,18,03,4.80
2013,04,13,18,04,4.80
2013,04,13,18,05,4.80
2013,04,13,18,06,6.40
2013,04,13,18,07,4.80
2013,04,13,18,08,4.80
2013,04,13,18,09,3.20
2013,04,13,18,11,1.60
2013,04,13,18,12,4.80
2013,04,13,18,13,4.80
2013,04,13,18,14,1.60
2013,04,13,18,15,4.80
2013,04,13,18,16,6.40
2013,04,13,18,17,1.60
2013,04,13,18,18,4.80
2013,04,13,18,19,4.80
2013,04,13,18,20,4.80
2013,04,13,18,21,1.60
2013,04,13,18,22,3.20
2013,04,13,18,23,1.60
2013,04,13,18,24,1.60
2013,04,13,18,25,1.60
2013,04,13,18,26,4.80
2013,04,13,18,27,1.60
2013,04,13,18,28,1.60
2013,04,13,18,29,6.40
2013,04,13,18,30,6.40
2013,04,13,18,31,4.80
2013,04,13,18,32,12.90
2013,04,13,18,33,6.40
2013,04,13,18,34,6.40
2013,04,13,18,35,8.10
2013,04,13,18,36,8.10
2013,04,13,18,37,6.40
2013,04,13,18,38,9.60
2013,04,13,18,39,8.10
2013,04,13,18,40,9.60
2013,04,13,18,41,6.40
2013,04,13,18,42,8.10
2013,04,13,18,43,4.80
2013,04,13,18,44,3.20
2013,04,13,18,45,3.20
2013,04,13,18,46,3.20
2013,04,13,18,47,1.60
2013,04,13,18,48,4.80
2013,04,13,18,49,1.60
2013,04,13,18,50,1.60
2013,04,13,18,51,1.60
2013,04,13,18,52,1.60
2013,04,13,18,53,3.20
2013,04,13,18,54,3.20
2013,04,13,18,55,1.60
2013,04,13,18,59,3.20
2013,04,13,19,00,3.20
2013,04,13,19,01,1.60
2013,04,13,19,04,1.60
2013,04,13,19,05,4.80
2013,04,13,19,06,6.40
2013,04,13,19,07,6.40
2013,04,13,19,08,3.20
2013,04,13,19,09,3.20
2013,04,13,19,10,1.60
2013,04,13,19,11,3.20
2013,04,13,19,30,3.20
2013,04,13,19,31,3.20
2013,04,13,19,32,1.60
2013,04,13,20,00,1.60
2013,04,13,20,05,1.60
2013,04,13,20,06,1.60
2013,04,13,20,43,1.60